| time (UTC) | temp F | wind direction | speed knots | gust knots | rain 1hr in | rain 24hr in | rain mn in | humidity % | barometer mb |
| 20260504150734 | 69 | 182 | 0.9 | 1.7 | 0.00 | 0.00 | 0.00 | 59 | 1017.7 |
| 20260504150230 | 70 | 147 | 0.0 | 0.9 | 0.00 | 0.00 | 0.00 | 62 | 1017.6 |
| 20260504141159 | 63 | 332 | 0.0 | 0.0 | 0.00 | 0.00 | 0.00 | 81 | 1018.3 |
| 20260504140656 | 62 | 39 | 0.0 | 0.0 | 0.00 | 0.00 | 0.00 | 83 | 1018.4 |
| 20260504140152 | 60 | 24 | 0.0 | 0.0 | 0.00 | 0.00 | 0.00 | 87 | 1018.3 |
| 20260504130621 | 48 | 301 | 0.0 | 0.0 | 0.00 | 0.00 | 0.00 | 99 | 1018.3 |
| 20260504130117 | 48 | 301 | 0.0 | 0.0 | 0.00 | 0.00 | 0.00 | 99 | 1018.2 |
| 20260504110508 | 40 | 295 | 0.0 | 0.0 | 0.00 | 0.00 | 0.00 | 99 | 1018.0 |
| 20260504100430 | 40 | 295 | 0.0 | 0.0 | 0.00 | 0.00 | 0.00 | 98 | 1017.5 |
| 20260504081823 | 42 | 295 | 0.0 | 0.0 | 0.00 | 0.00 | 0.00 | 97 | 1017.3 |
| 20260504081320 | 42 | 295 | 0.0 | 0.0 | 0.00 | 0.00 | 0.00 | 97 | 1017.3 |
| 20260504080816 | 42 | 295 | 0.0 | 0.0 | 0.00 | 0.00 | 0.00 | 97 | 1017.4 |
| 20260504080313 | 42 | 295 | 0.0 | 0.0 | 0.00 | 0.00 | 0.00 | 97 | 1017.4 |
| 20260504070240 | 43 | 295 | 0.0 | 0.0 | 0.00 | 0.00 | 0.00 | 96 | 1017.5 |
| 20260504060201 | 45 | 295 | 0.0 | 0.0 | 0.00 | 0.00 | 0.00 | 95 | 1018.3 |
| 20260504050629 | 45 | 295 | 0.0 | 0.0 | 0.00 | 0.00 | 0.00 | 93 | 1017.8 |
| 20260504050126 | 45 | 295 | 0.0 | 0.0 | 0.00 | 0.00 | 0.00 | 93 | 1017.9 |
| 20260504045623 | 46 | 295 | 0.0 | 0.0 | 0.00 | 0.00 | 0.00 | 93 | 1018.0 |
| 20260504045118 | 46 | 295 | 0.0 | 0.0 | 0.00 | 0.00 | 0.00 | 93 | 1017.9 |
| 20260504044616 | 46 | 295 | 0.0 | 0.0 | 0.00 | 0.00 | 0.00 | 92 | 1017.9 |
| 20260504044112 | 46 | 295 | 0.0 | 0.0 | 0.00 | 0.00 | 0.00 | 92 | 1018.0 |
| 20260504043610 | 46 | 295 | 0.0 | 0.0 | 0.00 | 0.00 | 0.00 | 92 | 1018.1 |
| 20260504043107 | 46 | 295 | 0.0 | 0.0 | 0.00 | 0.00 | 0.00 | 92 | 1018.0 |
| 20260504042604 | 46 | 295 | 0.0 | 0.0 | 0.00 | 0.00 | 0.00 | 91 | 1018.1 |
| 20260504042100 | 47 | 295 | 0.0 | 0.0 | 0.00 | 0.00 | 0.00 | 91 | 1018.2 |
| 20260504041556 | 47 | 295 | 0.0 | 0.0 | 0.00 | 0.00 | 0.00 | 91 | 1018.2 |
| 20260504041053 | 46 | 295 | 0.0 | 0.0 | 0.00 | 0.00 | 0.00 | 90 | 1018.4 |
| 20260504040550 | 47 | 295 | 0.0 | 0.0 | 0.00 | 0.00 | 0.00 | 90 | 1018.4 |
| 20260504040047 | 47 | 295 | 0.0 | 0.0 | 0.00 | 0.00 | 0.00 | 90 | 1018.5 |
| 20260504035543 | 47 | 295 | 0.0 | 0.0 | 0.00 | 0.00 | 0.00 | 89 | 1018.3 |
| 20260504035040 | 47 | 295 | 0.0 | 0.0 | 0.00 | 0.00 | 0.00 | 89 | 1018.3 |
| 20260504034538 | 47 | 295 | 0.0 | 0.0 | 0.00 | 0.00 | 0.00 | 89 | 1018.3 |
| 20260504034034 | 48 | 295 | 0.0 | 0.0 | 0.00 | 0.00 | 0.00 | 88 | 1018.3 |
| 20260504033533 | 48 | 295 | 0.0 | 0.0 | 0.00 | 0.00 | 0.00 | 88 | 1018.3 |
| 20260504033030 | 48 | 295 | 0.0 | 0.0 | 0.00 | 0.00 | 0.00 | 87 | 1018.3 |
| 20260504032527 | 48 | 295 | 0.0 | 0.0 | 0.00 | 0.00 | 0.00 | 87 | 1018.5 |
| 20260504032023 | 48 | 295 | 0.0 | 0.0 | 0.00 | 0.00 | 0.00 | 86 | 1018.3 |
| 20260504031520 | 48 | 295 | 0.0 | 0.0 | 0.00 | 0.00 | 0.00 | 86 | 1018.5 |
| 20260504031016 | 49 | 295 | 0.0 | 0.0 | 0.00 | 0.00 | 0.00 | 86 | 1018.4 |
| 20260504030514 | 49 | 295 | 0.0 | 0.0 | 0.00 | 0.00 | 0.00 | 85 | 1018.4 |
| 20260504030010 | 49 | 295 | 0.0 | 0.0 | 0.00 | 0.00 | 0.00 | 85 | 1018.1 |
| 20260504025507 | 49 | 295 | 0.0 | 0.0 | 0.00 | 0.00 | 0.00 | 84 | 1018.1 |
| 20260504025004 | 50 | 295 | 0.0 | 0.0 | 0.00 | 0.00 | 0.00 | 84 | 1018.3 |
| 20260504024500 | 50 | 295 | 0.0 | 0.0 | 0.00 | 0.00 | 0.00 | 83 | 1018.3 |
| 20260504023958 | 50 | 295 | 0.0 | 0.0 | 0.00 | 0.00 | 0.00 | 82 | 1018.2 |
| 20260504023455 | 50 | 295 | 0.0 | 0.0 | 0.00 | 0.00 | 0.00 | 82 | 1018.4 |
| 20260504022950 | 50 | 295 | 0.0 | 0.0 | 0.00 | 0.00 | 0.00 | 81 | 1018.1 |
| 20260504022446 | 50 | 295 | 0.0 | 0.0 | 0.00 | 0.00 | 0.00 | 81 | 1018.0 |
| 20260504021943 | 51 | 295 | 0.0 | 0.0 | 0.00 | 0.00 | 0.00 | 80 | 1018.1 |
| 20260504021440 | 51 | 295 | 0.0 | 0.0 | 0.00 | 0.00 | 0.00 | 80 | 1018.2 |
| 20260504020937 | 51 | 295 | 0.0 | 0.0 | 0.00 | 0.00 | 0.00 | 79 | 1018.0 |
| 20260504020434 | 52 | 295 | 0.0 | 0.0 | 0.00 | 0.00 | 0.00 | 78 | 1018.1 |
| 20260504015931 | 52 | 295 | 0.0 | 0.0 | 0.00 | 0.00 | 0.00 | 77 | 1017.9 |
| 20260504015427 | 52 | 295 | 0.0 | 0.0 | 0.00 | 0.00 | 0.00 | 76 | 1017.8 |
| 20260504014923 | 53 | 295 | 0.0 | 0.0 | 0.00 | 0.00 | 0.00 | 76 | 1017.9 |
| 20260504014419 | 53 | 295 | 0.0 | 0.0 | 0.00 | 0.00 | 0.00 | 75 | 1017.6 |
| 20260504013916 | 53 | 295 | 0.0 | 0.0 | 0.00 | 0.00 | 0.00 | 75 | 1017.7 |
| 20260504013415 | 54 | 295 | 0.0 | 0.0 | 0.00 | 0.00 | 0.00 | 74 | 1017.5 |
| 20260504012910 | 54 | 295 | 0.0 | 0.0 | 0.00 | 0.00 | 0.00 | 73 | 1017.6 |
| 20260504012408 | 54 | 295 | 0.0 | 0.0 | 0.00 | 0.00 | 0.00 | 72 | 1017.7 |
| 20260504011905 | 55 | 295 | 0.0 | 0.0 | 0.00 | 0.00 | 0.00 | 72 | 1017.6 |
| 20260504011402 | 55 | 295 | 0.0 | 0.0 | 0.00 | 0.00 | 0.00 | 71 | 1017.4 |
| 20260504010858 | 55 | 295 | 0.0 | 0.0 | 0.00 | 0.00 | 0.00 | 70 | 1017.4 |
| 20260504010354 | 56 | 295 | 0.0 | 0.0 | 0.00 | 0.00 | 0.00 | 68 | 1017.3 |
| 20260504005850 | 57 | 295 | 0.0 | 0.0 | 0.00 | 0.00 | 0.00 | 66 | 1017.4 |
| 20260504005347 | 57 | 295 | 0.0 | 0.0 | 0.00 | 0.00 | 0.00 | 65 | 1017.3 |
| 20260504004845 | 58 | 295 | 0.0 | 0.0 | 0.00 | 0.00 | 0.00 | 65 | 1017.4 |
| 20260504004343 | 58 | 295 | 0.0 | 0.0 | 0.00 | 0.00 | 0.00 | 64 | 1017.3 |
| 20260504003839 | 59 | 295 | 0.0 | 0.0 | 0.00 | 0.00 | 0.00 | 63 | 1017.4 |
| 20260504003336 | 59 | 295 | 0.0 | 0.0 | 0.00 | 0.00 | 0.00 | 62 | 1017.2 |
| 20260504002832 | 60 | 295 | 0.0 | 0.0 | 0.00 | 0.00 | 0.00 | 60 | 1017.2 |
| 20260504002329 | 60 | 294 | 0.0 | 0.0 | 0.00 | 0.00 | 0.00 | 58 | 1017.3 |
| 20260504001827 | 61 | 295 | 0.0 | 0.0 | 0.00 | 0.00 | 0.00 | 56 | 1017.2 |
| 20260504001324 | 62 | 295 | 0.0 | 0.0 | 0.00 | 0.00 | 0.00 | 53 | 1017.1 |
| 20260504000821 | 63 | 295 | 0.0 | 0.0 | 0.00 | 0.00 | 0.00 | 51 | 1017.3 |
| 20260504000318 | 63 | 295 | 0.0 | 0.0 | 0.00 | 0.00 | 0.00 | 49 | 1017.2 |
| 20260503235815 | 64 | 299 | 0.0 | 0.0 | 0.00 | 0.00 | 0.00 | 49 | 1017.2 |
| 20260503235313 | 64 | 295 | 0.0 | 0.0 | 0.00 | 0.00 | 0.00 | 49 | 1017.2 |
| 20260503234810 | 64 | 296 | 0.0 | 0.0 | 0.00 | 0.00 | 0.00 | 48 | 1017.2 |
| 20260503234308 | 65 | 286 | 0.0 | 0.0 | 0.00 | 0.00 | 0.00 | 47 | 1017.0 |
| 20260503233806 | 65 | 278 | 0.9 | 0.9 | 0.00 | 0.00 | 0.00 | 46 | 1017.1 |
| 20260503233301 | 66 | 322 | 0.0 | 0.0 | 0.00 | 0.00 | 0.00 | 46 | 1017.0 |
| 20260503232758 | 66 | 290 | 0.9 | 0.9 | 0.00 | 0.00 | 0.00 | 45 | 1017.0 |
| 20260503232255 | 67 | 291 | 0.0 | 0.0 | 0.00 | 0.00 | 0.00 | 44 | 1017.0 |
| 20260503231753 | 67 | 297 | 0.0 | 0.9 | 0.00 | 0.00 | 0.00 | 45 | 1017.0 |
| 20260503231250 | 67 | 320 | 0.0 | 0.0 | 0.00 | 0.00 | 0.00 | 45 | 1016.9 |
| 20260503230745 | 67 | 284 | 0.9 | 0.9 | 0.00 | 0.00 | 0.00 | 44 | 1017.1 |
| 20260503230243 | 68 | 210 | 0.9 | 0.9 | 0.00 | 0.00 | 0.00 | 44 | 1017.1 |
| 20260503225741 | 68 | 262 | 0.9 | 0.9 | 0.00 | 0.00 | 0.00 | 45 | 1017.0 |
| 20260503225241 | 68 | 278 | 0.0 | 0.0 | 0.00 | 0.00 | 0.00 | 46 | 1017.0 |
| 20260503224738 | 68 | 349 | 0.0 | 0.9 | 0.00 | 0.00 | 0.00 | 46 | 1017.0 |
| 20260503224236 | 68 | 305 | 0.0 | 0.0 | 0.00 | 0.00 | 0.00 | 45 | 1017.2 |
| 20260503223733 | 68 | 310 | 0.0 | 0.9 | 0.00 | 0.00 | 0.00 | 44 | 1017.1 |
| 20260503223231 | 68 | 218 | 0.9 | 1.7 | 0.00 | 0.00 | 0.00 | 44 | 1017.1 |
| 20260503222727 | 68 | 312 | 0.0 | 0.0 | 0.00 | 0.00 | 0.00 | 44 | 1017.2 |
| 20260503222225 | 68 | 331 | 0.0 | 0.0 | 0.00 | 0.00 | 0.00 | 44 | 1017.2 |
| 20260503221723 | 68 | 316 | 0.0 | 0.0 | 0.00 | 0.00 | 0.00 | 44 | 1017.3 |
| 20260503221220 | 68 | 6 | 0.0 | 0.0 | 0.00 | 0.00 | 0.00 | 44 | 1017.2 |
| 20260503220717 | 69 | 258 | 0.9 | 0.9 | 0.00 | 0.00 | 0.00 | 44 | 1017.3 |
| 20260503220214 | 68 | 288 | 0.9 | 0.9 | 0.00 | 0.00 | 0.00 | 44 | 1017.3 |
| 20260503215710 | 68 | 241 | 0.9 | 0.9 | 0.00 | 0.00 | 0.00 | 45 | 1017.3 |
| 20260503215207 | 68 | 298 | 0.0 | 0.0 | 0.00 | 0.00 | 0.00 | 44 | 1017.4 |
| 20260503214706 | 68 | 291 | 0.0 | 0.9 | 0.00 | 0.00 | 0.00 | 44 | 1017.6 |
| 20260503214202 | 68 | 263 | 0.9 | 1.7 | 0.00 | 0.00 | 0.00 | 45 | 1017.5 |
| 20260503213701 | 68 | 306 | 0.9 | 0.9 | 0.00 | 0.00 | 0.00 | 44 | 1017.6 |
| 20260503213157 | 68 | 299 | 1.7 | 1.7 | 0.00 | 0.00 | 0.00 | 45 | 1017.7 |
| 20260503212654 | 68 | 244 | 0.9 | 0.9 | 0.00 | 0.00 | 0.00 | 45 | 1017.6 |
| 20260503212151 | 68 | 34 | 0.0 | 0.0 | 0.00 | 0.00 | 0.00 | 43 | 1017.4 |
| 20260503211649 | 68 | 359 | 1.7 | 1.7 | 0.00 | 0.00 | 0.00 | 45 | 1017.6 |
| 20260503211144 | 68 | 316 | 0.9 | 0.9 | 0.00 | 0.00 | 0.00 | 44 | 1017.8 |
| 20260503210641 | 68 | 252 | 0.0 | 0.9 | 0.00 | 0.00 | 0.00 | 44 | 1017.6 |
| 20260503210138 | 69 | 286 | 0.0 | 0.9 | 0.00 | 0.00 | 0.00 | 44 | 1017.8 |
| 20260503205633 | 69 | 348 | 0.0 | 0.9 | 0.00 | 0.00 | 0.00 | 45 | 1017.8 |
| 20260503205130 | 68 | 331 | 0.9 | 0.9 | 0.00 | 0.00 | 0.00 | 47 | 1017.8 |
| 20260503204627 | 68 | 41 | 0.0 | 0.0 | 0.00 | 0.00 | 0.00 | 45 | 1018.0 |
| 20260503204119 | 68 | 175 | 1.7 | 1.7 | 0.00 | 0.00 | 0.00 | 45 | 1017.9 |
| 20260503203616 | 68 | 210 | 1.7 | 2.6 | 0.00 | 0.00 | 0.00 | 46 | 1018.0 |
| 20260503203113 | 68 | 311 | 1.7 | 2.6 | 0.00 | 0.00 | 0.00 | 46 | 1018.2 |
| 20260503202611 | 68 | 256 | 0.9 | 1.7 | 0.00 | 0.00 | 0.00 | 46 | 1018.3 |
| 20260503202109 | 68 | 251 | 1.7 | 1.7 | 0.00 | 0.00 | 0.00 | 47 | 1018.4 |
| 20260503201607 | 68 | 209 | 1.7 | 1.7 | 0.00 | 0.00 | 0.00 | 47 | 1018.5 |
| 20260503201104 | 68 | 160 | 0.9 | 1.7 | 0.00 | 0.00 | 0.00 | 47 | 1018.7 |
| 20260503200600 | 68 | 295 | 1.7 | 2.6 | 0.00 | 0.00 | 0.00 | 46 | 1018.7 |
| 20260503200056 | 67 | 347 | 0.0 | 0.9 | 0.00 | 0.00 | 0.00 | 47 | 1018.8 |
| 20260503195554 | 68 | 125 | 1.7 | 1.7 | 0.00 | 0.00 | 0.00 | 46 | 1018.9 |
| 20260503195050 | 68 | 136 | 0.9 | 1.7 | 0.00 | 0.00 | 0.00 | 46 | 1018.9 |
| 20260503194547 | 68 | 228 | 1.7 | 2.6 | 0.00 | 0.00 | 0.00 | 44 | 1018.9 |
| 20260503194047 | 68 | 340 | 0.9 | 1.7 | 0.00 | 0.00 | 0.00 | 45 | 1019.1 |
| 20260503193544 | 69 | 257 | 1.7 | 3.5 | 0.00 | 0.00 | 0.00 | 44 | 1019.3 |
| 20260503193039 | 69 | 333 | 1.7 | 1.7 | 0.00 | 0.00 | 0.00 | 45 | 1019.3 |
| 20260503192535 | 68 | 299 | 0.9 | 0.9 | 0.00 | 0.00 | 0.00 | 44 | 1019.4 |
| 20260503192031 | 67 | 43 | 0.9 | 1.7 | 0.00 | 0.00 | 0.00 | 46 | 1019.6 |
| 20260503191528 | 68 | 348 | 3.5 | 5.2 | 0.00 | 0.00 | 0.00 | 44 | 1019.6 |
| 20260503191025 | 68 | 47 | 0.0 | 0.9 | 0.00 | 0.00 | 0.00 | 43 | 1019.5 |
| 20260503190522 | 68 | 299 | 0.0 | 0.0 | 0.00 | 0.00 | 0.00 | 44 | 1019.6 |
| 20260503190019 | 68 | 295 | 0.9 | 1.7 | 0.00 | 0.00 | 0.00 | 44 | 1019.7 |
| 20260503185515 | 68 | 296 | 1.7 | 1.7 | 0.00 | 0.00 | 0.00 | 42 | 1019.5 |
| 20260503185015 | 69 | 270 | 1.7 | 1.7 | 0.00 | 0.00 | 0.00 | 42 | 1020.0 |
| 20260503184512 | 68 | 281 | 0.9 | 0.9 | 0.00 | 0.00 | 0.00 | 42 | 1020.0 |
| 20260503184008 | 67 | 347 | 0.0 | 0.0 | 0.00 | 0.00 | 0.00 | 42 | 1020.0 |
| 20260503183504 | 67 | 344 | 0.9 | 0.9 | 0.00 | 0.00 | 0.00 | 42 | 1020.0 |
| 20260503183001 | 68 | 347 | 1.7 | 1.7 | 0.00 | 0.00 | 0.00 | 41 | 1020.1 |
| 20260503182500 | 67 | 352 | 0.0 | 0.0 | 0.00 | 0.00 | 0.00 | 41 | 1019.9 |
| 20260503181957 | 69 | 315 | 0.9 | 1.7 | 0.00 | 0.00 | 0.00 | 41 | 1020.3 |
| 20260503181454 | 68 | 281 | 1.7 | 2.6 | 0.00 | 0.00 | 0.00 | 44 | 1020.3 |
| 20260503180950 | 68 | 29 | 0.9 | 1.7 | 0.00 | 0.00 | 0.00 | 44 | 1020.6 |
| 20260503180449 | 68 | 337 | 0.9 | 0.9 | 0.00 | 0.00 | 0.00 | 44 | 1020.4 |
| 20260503175945 | 68 | 259 | 1.7 | 2.6 | 0.00 | 0.00 | 0.00 | 44 | 1020.5 |
| 20260503175443 | 68 | 187 | 3.5 | 3.5 | 0.00 | 0.00 | 0.00 | 45 | 1020.4 |
| 20260503174939 | 68 | 328 | 0.0 | 0.0 | 0.00 | 0.00 | 0.00 | 46 | 1020.5 |
| 20260503174437 | 68 | 215 | 1.7 | 1.7 | 0.00 | 0.00 | 0.00 | 46 | 1020.5 |
| 20260503173932 | 68 | 328 | 0.0 | 0.9 | 0.00 | 0.00 | 0.00 | 46 | 1020.4 |
| 20260503173428 | 68 | 317 | 0.9 | 0.9 | 0.00 | 0.00 | 0.00 | 46 | 1020.7 |
| 20260503172926 | 68 | 275 | 0.9 | 1.7 | 0.00 | 0.00 | 0.00 | 47 | 1020.7 |
| 20260503172423 | 67 | 289 | 1.7 | 1.7 | 0.00 | 0.00 | 0.00 | 47 | 1020.7 |
| 20260503171919 | 67 | 244 | 1.7 | 2.6 | 0.00 | 0.00 | 0.00 | 47 | 1020.8 |
| 20260503171416 | 67 | 70 | 2.6 | 5.2 | 0.00 | 0.00 | 0.00 | 48 | 1020.8 |
| 20260503170914 | 66 | 285 | 0.0 | 0.0 | 0.00 | 0.00 | 0.00 | 48 | 1020.8 |
| 20260503170409 | 68 | 310 | 0.9 | 1.7 | 0.00 | 0.00 | 0.00 | 48 | 1020.9 |